Location: *
(58.4167°N, 22.5000°E)
Time: 00:53:56
(UTC+00:00)

CZ-4C R/B - Pass Details

Date: 22 September 2019
Orbit: 653 x 1349 km, 63.4° (Epoch: 19 October)

Event Time Altitude Azimuth Distance (km) Brightness Sun altitude
Rises 22:48:57 0° 307° (NW) 3,804 6.0 -31.2°
Reaches altitude 10° 22:51:56 10° 295° (WNW) 2,959 5.2 -31.2°
Enters shadow 22:54:59 21° 271° (W) 2,354 4.4 -31.1°
